TimeMDT,TemperatureF,Dew PointF,Humidity,Sea Level PressureIn,VisibilityMPH,Wind Direction,Wind SpeedMPH,Gust SpeedMPH,PrecipitationIn,Events,Conditions,WindDirDegrees,DateUTC
12:53 AM,45.0,26.1,48,29.54,10.0,SSW,10.4,-,N/A,,Clear,210,2012-10-23 06:53:00
1:53 AM,44.1,25.0,47,29.51,10.0,SW,8.1,-,N/A,,Clear,220,2012-10-23 07:53:00
2:53 AM,44.1,25.0,47,29.53,10.0,South,8.1,-,N/A,,Clear,190,2012-10-23 08:53:00
3:53 AM,39.9,25.0,55,29.52,10.0,Calm,Calm,-,N/A,,Clear,0,2012-10-23 09:53:00
4:53 AM,39.9,26.1,58,29.49,10.0,South,13.8,-,N/A,,Clear,180,2012-10-23 10:53:00
5:53 AM,41.0,26.1,55,29.56,10.0,South,13.8,-,N/A,,Clear,190,2012-10-23 11:53:00
6:53 AM,44.1,25.0,47,29.57,10.0,SW,17.3,-,N/A,,Clear,220,2012-10-23 12:53:00
7:53 AM,45.0,24.1,44,29.62,10.0,SW,18.4,-,N/A,,Clear,220,2012-10-23 13:53:00
8:53 AM,53.1,24.1,32,29.60,10.0,SSW,21.9,31.1,N/A,,Clear,210,2012-10-23 14:53:00
9:53 AM,54.0,23.0,30,29.61,10.0,WSW,28.8,36.8,N/A,,Scattered Clouds,250,2012-10-23 15:53:00
11:53 AM,57.9,21.9,25,29.54,10.0,WSW,35.7,43.7,N/A,,Clear,240,2012-10-23 17:53:00
12:53 PM,60.1,21.9,23,29.55,10.0,WSW,26.5,38.0,N/A,,Clear,240,2012-10-23 18:53:00
1:53 PM,57.9,19.9,23,29.56,10.0,WSW,20.7,32.2,N/A,,Mostly Cloudy,240,2012-10-23 19:53:00
2:53 PM,59.0,19.0,21,29.56,10.0,West,18.4,26.5,N/A,,Partly Cloudy,270,2012-10-23 20:53:00
3:24 PM,53.6,28.4,38,29.81,10.0,NW,17.3,27.6,N/A,,Partly Cloudy,310,2012-10-23 21:24:00
3:53 PM,50.0,28.9,44,29.65,10.0,North,24.2,35.7,N/A,,Clear,10,2012-10-23 21:53:00
4:53 PM,46.0,26.1,46,29.71,10.0,North,15.0,24.2,N/A,,Clear,10,2012-10-23 22:53:00
5:53 PM,41.0,24.1,51,29.76,10.0,North,15.0,-,N/A,,Clear,10,2012-10-23 23:53:00
6:53 PM,36.0,24.1,62,29.80,10.0,NNE,16.1,25.3,N/A,,Clear,20,2012-10-24 00:53:00
7:53 PM,34.0,25.0,70,29.82,10.0,NNE,11.5,-,N/A,,Clear,20,2012-10-24 01:53:00
8:53 PM,33.1,26.1,75,29.80,10.0,NNE,6.9,-,N/A,,Clear,20,2012-10-24 02:53:00
9:53 PM,30.9,26.1,82,29.79,10.0,NE,5.8,-,N/A,,Clear,40,2012-10-24 03:53:00
10:53 PM,30.9,26.1,82,29.78,10.0,NNE,6.9,-,N/A,,Mostly Cloudy,30,2012-10-24 04:53:00